Terminal Aerodrome Forecast
Issued by NWS Wilmington, OH

Current Version | Previous Version | Graphics & Text | Print | Product List | Glossary On
Versions: 1 2 3 4 5 6 7 8 9 10 11 12 13 14 15 16 17 18 19 20 21 22 23
000
FTUS41 KILN 281740
TAFDAY
TAF
KDAY 281740Z 2818/2918 03005KT P6SM OVC013
     FM282100 03007KT P6SM VCTS BKN018CB OVC025
     FM290000 02006KT P6SM BKN025
     FM290300 36005KT P6SM OVC012
     FM290700 33004KT 3SM BR OVC004
     FM291400 30007KT P6SM BKN015=

USA.gov is the U.S. government's official web portal to all federal, state and local government web resources and services.